Regional Weather Roundup
Issued by NWS

Home | Current Version | Previous Version | Graphics & Text | Print | Product List | Glossary Off
Versions: 1 2 3 4 5 6 7 8 9 10 11 12 13 14 15 16 17 18 19 20 21 22 23 24 25 26 27 28 29 30 31 32 33 34 35 36 37 38 39 40 41 42 43 44 45 46 47 48 49 50

000
ASUS43 KMKX 220921
RWRWI

WISCONSIN REGIONAL WEATHER ROUNDUP
NATIONAL WEATHER SERVICE MILWAUKEE/SULLIVAN WI
400 AM CDT FRI SEP 22 2017

NOTE: "FAIR" INDICATES FEW OR NO CLOUDS BELOW 12,000 FEET WITH NO
SIGNIFICANT WEATHER AND/OR OBSTRUCTIONS TO VISIBILITY.

WIZ001-002-006>008-014>016-023>028-221000-
NORTHWEST WISCONSIN

CITY           SKY/WX    TMP DP  RH WIND       PRES   REMARKS
SUPERIOR ARPT  CLOUDY    60  59  99 NE5       29.87R
ASHLAND        CLOUDY    71  65  81 CALM      29.86F
HAYWARD        CLOUDY    71  65  81 S8        29.89F
SIREN          CLOUDY    74  66  75 S10G17    29.85S
CUMBERLAND     CLEAR     68  63  83 SE5       29.89S
RICE LAKE      CLEAR     68  65  88 SE6       29.91S
CHETEK         CLEAR     68  65  93 MISG      29.90F
LADYSMITH      CLEAR     70  65  85 SE5       29.94S
EAU CLAIRE     PTCLDY    73  67  81 S9        29.90S
MENOMONIE      CLEAR     68  66  94 CALM      29.89F
NEW RICHMOND   MOCLDY    74  66  77 S9        29.87S
OSCEOLA        MOCLDY    75  67  76 S7        29.88R
$$

WIZ003>005-009-010-017-018-221000-
NORTH CENTRAL WISCONSIN

CITY           SKY/WX    TMP DP  RH WIND       PRES   REMARKS
MANITOWISH WTR CLEAR     66  66 100 SE6       29.96S
ARBOR VITAE    CLEAR     69  67  90 S6        29.98R
WOODRUFF       CLEAR     69  67  90 S6        29.98R
RHINELANDER    MOCLDY    69  67  93 S6        30.00R
EAGLE RIVER    MOCLDY    66  66  99 S3        29.99S
LAND O LAKES   MOCLDY    68  65  91 S6        30.00S
PHILLIPS       CLEAR     68  67  95 S7        29.94F
TOMAHAWK       PTCLDY    65  63  92 CALM      29.98S
MEDFORD        MOCLDY    66  64  91 S7        29.97F
MERRILL        CLOUDY    67  67  98 S3        29.99S
$$

WIZ029-030-035-036-043>047-221000-
CENTRAL WISCONSIN

CITY           SKY/WX    TMP DP  RH WIND       PRES   REMARKS
WAUSAU         PTCLDY    66  65  96 SE5       29.98R
MOSINEE        CLEAR     64  64 100 SE5       30.00S
MARSHFIELD     CLOUDY    68  64  87 S7        29.98R
STEVENS POINT  CLEAR     62  62 100 CALM      30.00S
WAUPACA        CLEAR     66  66  98 CALM      30.00R FOG
WAUTOMA        PTCLDY    63  63 100 CALM      30.00S
WISC RAPIDS    CLEAR     68  66  93 SE3       29.99S
CAMP DOUGLAS   CLEAR     72  68  89 S6        29.96S
$$

WIZ011>013-019>022-031-037>040-048>050-221000-
NORTHEAST WISCONSIN

CITY           SKY/WX    TMP DP  RH WIND       PRES   REMARKS
ANTIGO         CLEAR     65  65 100 S6        30.02R FOG
SHAWANO        FOG       65  64  94 CALM      29.99S VSB 1/2
OCONTO         CLEAR     60  60  99 CALM      29.99S
STURGEON BAY   CLEAR     70  68  93 S9        30.00F FOG
GREEN BAY      CLEAR     69  68  96 S6        30.00R
MANITOWOC      FOG       64  64 100 E5        30.02R VSB 3/4
APPLETON       CLEAR     68  68 100 S3        30.00R FOG
CLINTONVILLE   FOG       63  63 100 CALM      30.00R VSB 1
OSHKOSH        CLEAR     68  66  93 S6        30.00R FOG
$$

WIZ032>034-041-042-053>061-221000-
SOUTHWEST WISCONSIN

CITY           SKY/WX    TMP DP  RH WIND       PRES   REMARKS
LA CROSSE      NOT AVBL
SPARTA         MOCLDY    74  67  80 CALM      29.95S
VIROQUA        CLEAR     71  69  95 CALM      29.97S
BOSCOBEL       CLEAR     66  65  96 CALM      29.97R
PRAIRIE DU CHI CLEAR     77  66  69 SE8       29.95S
PLATTEVILLE    CLEAR     73  71  93 S8        30.01R
$$

WIZ056-057-062-063-064-067-068-221000-
SOUTH CENTRAL WISCONSIN

CITY           SKY/WX    TMP DP  RH WIND       PRES   REMARKS
REEDSBURG      CLEAR     73  68  83 S7        29.98R
BARABOO/DELLS  CLEAR     71  65  83 S7        29.99S
LONE ROCK      CLEAR     73  68  84 CALM      29.98R
MINERAL POINT  CLEAR     72  70  94 SE8       30.01R
MADISON        CLEAR     70  67  90 S7        30.00R
MIDDLETON      CLEAR     69  69  99 CALM      30.01S
WATERTOWN      CLEAR     69  69 100 CALM      30.02R
MONROE         CLEAR     70  66  88 S10       30.01S
JANESVILLE     CLEAR     68  68 100 S5        30.01S
$$

WIZ051-052-058>065-066-070>072-221000-
SOUTHEAST WISCONSIN

CITY           SKY/WX    TMP DP  RH WIND       PRES   REMARKS
MILWAUKEE      PTCLDY    71  69  93 CALM      30.03R FOG
WAUKESHA       CLEAR     68  64  88 S3        30.04S
MILWAUKEE/TIMM CLEAR     68  63  83 CALM      30.04R FOG
RACINE         CLEAR     71  70  96 CALM      30.05R FOG
BURLINGTON     FOG       63  63 100 CALM      30.03S VSB 1/4
KENOSHA        CLOUDY    70  68  93 SE3       30.04R FOG
FOND DU LAC    CLEAR     70  66  87 S7        30.01R
SHEBOYGAN      FOG       64  64 100 S3        30.02R VSB 1/4
WEST BEND        N/A     63  63 100 CALM      30.03S FOG
JUNEAU         CLEAR     69  67  92 SE6       30.03R
$$

LSZ147-162-221000-
LAKE SUPERIOR

STATION/POSITION TIME  TEMP    WIND        PRES    WAVE
                       AIR SEA DIR/SP/G            HT/PER
                 (UTC) (F)     (DEG/KT/KT) (MB)    (FT/S)
W MID LAKE BUOY  0850   59 55  130/  8/  8 1011.5F   1/ 4
DEVILS ISLAND    0900   62      50/  5/  5 1011.3R
PORT WING        0900   61     340/  3/ 22 1011.9
SAXON HARBOR     0840   75     190/  9/ 16 1010.5S
$$

LMZ867-665-643>646-221000-
LAKE MICHIGAN

STATION/POSITION TIME  TEMP    WIND        PRES    WAVE
                       AIR SEA DIR/SP/G            HT/PER
                 (UTC) (F)     (DEG/KT/KT) (MB)    (FT/S)
S GREEN BAY BUOY 0900   69 67  190/  6/  8 1015.3
N MID LAKE BUOY  0850   69 65  170/  8/ 10 1016.4S   0
NORTHPORT PIER   0840   67     150/  6/  8 1015.6S
KEWAUNEE LAKESHO 0854   62     170/  3/  4 1015.3R
SHEBOYGAN LAKESH 0900   70     190/  5/  6 1016.1R
PORT WASHINGTON  0840   70     210/  1/  2 1017.3R
ATWATER BUOY     0839   68 66  190/  4/  4 1017.0R
MILWAUKEE LAKESH 0900   70     210/  1/  2   N/A
S MID LAKE BUOY  0850   72 69  160/ 10/ 10 1016.8R   1
KENOSHA   LAKESH 0900   73     180/  6/  7 1016.9
$$

TC  - TEMPERATURE IN CELSIUS
VSB - VISIBILITY IN STATUTE MILES
WCI - WIND CHILL INDEX
HX  - HEAT INDEX





USA.gov is the U.S. government's official web portal to all federal, state and local government web resources and services.